Погода в Высоком

Россия / Рязанская область     53°45′30″N   41°13′38″E
темп.,
°C
ветер,
м/с
пор.,
м/с
влажн.,
%
обл.,
%
осадки,
мм/ч
давл.,
гПа
погр.,
м
2 августа, пн
пн200:00+21юв49535 0.0 1012153
03:00+20ююз35595 0.0 101274
06:00+21ю366015 0.0 1012130
09:00+29ю574024 0.0 1011541
12:00+32ююз68305 0.0 10102486
15:00+33ю782819 0.0 10082277
18:00+28зсз11415 0.0 100735
21:00+25зюз24524 0.3 100795
3 августа, вт
вт300:00+23ю41054100 0.0 1007176
03:00+21з2271100 0.0 100742
06:00+21юз387779 0.0 1009334
09:00+22зюз4668100 0.0 1009491
12:00+23ююз356588 0.2 1010761
15:00+28ююз464659 0.3 10091947
18:00+23зсз2573100 2.6 1009285
21:00+20сз3579100 2.9 101193
4 августа, ср
ср400:00+18сз3880100 0.0 1012163
03:00+16ссз36838 0.0 1013118
06:00+16ссз25796 0.0 1014143
09:00+22ссз45500 0.0 1015727
12:00+25сз5436100 0.0 10152568
15:00+25сз243155 0.0 10151866
18:00+24сз673710 0.0 1016873
21:00+18с245597 0.0 101759
5 августа, чт
чт500:00+18зсз115585 0.0 101711
03:00+15сз226538 0.0 101813
06:00+16ссз1165100 0.0 101841
09:00+22сз114639 0.0 1018532
12:00+26сз12317 0.0 10182356
15:00+27ссз232883 0.0 10172795
18:00+21сз3548100 0.0 1017100
21:00+20сз3451100 0.0 101782
6 августа, пт
пт600:00+18с246254 0.0 101783
03:00+18св2370100 0.1 101763
06:00+18ссв116812 0.0 101821
09:00+23ссв214921 0.0 1018595
12:00+27св213717 0.0 10171709
15:00+28св223592 0.0 10162373
18:00+25всв354558 0.0 1016144
21:00+21в612595 0.0 1017382